Hourly Weather Roundup
Issued by NWS Central Illinois

Home | Current Version | Previous Version | Text Only | Print | Product List | Glossary On
Versions: 1 2 3 4 5 6 7 8 9 10 11 12 13 14 15 16 17 18 19 20 21 22 23 24 25 26 27 28 29 30 31 32 33 34 35 36 37 38 39 40 41 42 43 44 45 46 47 48 49 50
000
NZUS43 KILX 191810
HWRILX

AREA WEATHER ROUNDUP
NATIONAL WEATHER SERVICE, LINCOLN IL
100 PM CDT SUN OCT 19 2014


CITY           SKY/WX    TMP DP  RH WIND       PRES   REMARKS
BLOOMINGTON    CLOUDY    53  43  69 SW12      30.19F
6HR MIN TEMP:  35; 6HR MAX TEMP:  53;

CHAMPAIGN      CLOUDY    53  41  63 SW12      30.20F
6HR MIN TEMP:  33; 6HR MAX TEMP:  53;

DECATUR        CLOUDY    54  43  66 S12       30.20F
6HR MIN TEMP:  38; 6HR MAX TEMP:  54;

FLORA          SUNNY     53  42  65 CALM      30.23F
6HR MIN TEMP:  48; 6HR MAX TEMP:  53;

GALESBURG      SUNNY     58  44  60 S8        30.13F
JACKSONVILLE   MOSUNNY   60  44  54 SW9       30.17F
6HR MIN TEMP:  45; 6HR MAX TEMP:  61;

LACON          MOSUNNY   55  43  63 S9        30.14F
6HR MIN TEMP:  32; 6HR MAX TEMP:  55;

LAWRENCEVILLE  CLOUDY    52  41  66 W5        30.24F
6HR MIN TEMP:  48; 6HR MAX TEMP:  55;

LITCHFIELD     MOSUNNY   56  41  57 SW9       30.19F
$$


CITY           SKY/WX    TMP DP  RH WIND       PRES   REMARKS
LINCOLN        CLOUDY    60  44  56 S7        30.17F
6HR MIN TEMP:  37; 6HR MAX TEMP:  60;

MACOMB         SUNNY     60  43  53 SW12      30.17F
MATTOON        CLOUDY    51  41  68 SW7       30.21F
6HR MIN TEMP:  42; 6HR MAX TEMP:  54;

MT CARMEL AP   CLOUDY    54  43  66 SW5       30.23F
OLNEY-NOBLE AP CLOUDY    52  41  66 CALM      30.24F
PARIS          MOSUNNY   55  41  58 SW5       30.21F
6HR MIN TEMP:  43; 6HR MAX TEMP:  56;

PEORIA         MOSUNNY   58  43  57 S8        30.16F
6HR MIN TEMP:  39; 6HR MAX TEMP:  59;

PONTIAC        CLOUDY    54  43  66 SW10      30.18F
RANTOUL        PTSUNNY   56  40  55 SW13      30.20F
6HR MIN TEMP:  34; 6HR MAX TEMP:  56;

ROBINSON       CLOUDY    53  43  68 S7        30.25F
6HR MIN TEMP:  49; 6HR MAX TEMP:  53;

SPRINGFIELD    PTSUNNY   58  43  57 SW8       30.18F
6HR MIN TEMP:  40; 6HR MAX TEMP:  59;

TAYLORVILLE    PTSUNNY   55  41  58 W6        30.19F
$$

...REGIONAL REPORTS...


CITY           SKY/WX    TMP DP  RH WIND       PRES   REMARKS
CHICAGO O`HARE PTSUNNY   51  39  63 SW10G20   30.13F
KANKAKEE       PTSUNNY   56  42  61 SW10G21   30.17F
MOLINE         SUNNY     58  43  57 SW12      30.10F
MOUNT VERNON   CLOUDY    57  45  62 S5        30.23F
PITTSFIELD     MOSUNNY   60  44  56 S10G16    30.17F
QUINCY         MOSUNNY   58  45  62 SW10G16   30.15F
ROCKFORD       CLOUDY    56  41  57 SW16      30.13F
$$


CITY           SKY/WX    TMP DP  RH WIND       PRES   REMARKS
BURLINGTON     SUNNY     58  45  62 S14       30.12F
CEDAR RAPIDS   PTSUNNY   58  44  60 SW15      30.06F
DES MOINES     PTSUNNY   63  46  54 SW16      30.04F
KIRKSVILLE     SUNNY     62  46  55 SW14G20   30.13F
OTTUMWA        SUNNY     62  43  49 S16G23    30.07F
ST LOUIS       PTSUNNY   59  45  59 CALM      30.20F
$$


CITY           SKY/WX    TMP DP  RH WIND       PRES   REMARKS
TERRE HAUTE    MOSUNNY   54  40  59 SW9       30.22F
EVANSVILLE     SUNNY     56  41  57 S7        30.23F
INDIANAPOLIS   CLOUDY    52  38  58 SW7       30.21F
LAFAYETTE      PTSUNNY   52  39  61 SW13      30.20F
MADISON        PTSUNNY   53  40  61 S14G22    30.04F
MILWAUKEE      PTSUNNY   53  40  61 SW20G25   30.08F
$$





USA.gov is the U.S. government's official web portal to all federal, state and local government web resources and services.